Weather History for Syracuse, NY

Change the Weather History Date:

Sunday, June 29, 2014

  Actual Average Record
Temperature  
Mean Temperature 78 °F 70 °F  
Max Temperature 90 °F 81 °F 95 °F (1933)
Min Temperature 65 °F 60 °F 42 °F (1988)
Degree Days  
Heating Degree Days 0 1  
Month to date heating degree days 23 60  
Since 1 June heating degree days 23 60  
Since 1 July heating degree days 7079 6650  
Cooling Degree Days 13 6  
Month to date cooling degree days 131 107  
Year to date cooling degree days 187 137  
Since 1 June cooling degree days 131 107  
Growing Degree Days 27 (Base 50)    
Moisture  
Dew Point 64 °F    
Average Humidity 66    
Maximum Humidity 87    
Minimum Humidity 44    
Precipitation  
Precipitation 0.03 in 0.11 in 2.17 in (1921)
Month to date precipitation 2.74 3.19  
Year to date precipitation 20.12 17.12  
Snow  
Snow 0.00 in 0.00 in 0.00 in (2002)
Month to date snowfall 0.0 0.0  
Since 1 June snowfall 0.0 0.0  
Since 1 July snowfall 132.0 123.8  
Snow Depth 0.00 in    
Sea Level Pressure  
Sea Level Pressure 30.08 in    
Wind  
Wind Speed 8 mph (South)    
Max Wind Speed 18 mph    
Max Gust Speed 25 mph    
Visibility 10 miles    
Events Rain    
T = Trace of Precipitation, MM = Missing Value Source: NWS Daily Summary

Daily Weather History Graph

Daily Weather History Graph

Search for Another Location

Airport:

Trip Planner

Search our weather history database for the weather conditions in past years. The results will help you decide how hot, cold, wet, or windy it might be!

Date:

Astronomy

Jun. 29, 2014 Rise Set
Actual Time 5:27 AM EDT 8:47 PM EDT
Civil Twilight 4:52 AM EDT 9:23 PM EDT
Nautical Twilight 4:06 AM EDT 10:09 PM EDT
Astronomical Twilight 3:09 AM EDT 11:05 PM EDT
Moon 7:47 AM EDT (6/29) 10:02 PM EDT (6/29)
Length of Visible Light 16h 30m
Length of Day
15h 20m
Waxing Crescent, 5% of the Moon is Illuminated
Jun 29
Waxing Crescent
Jul 5
First Quarter
Jul 12
Full
Jul 18
Last Quarter
Jul 26
New

Hourly Weather History & Observations

Time (EDT) Temp. Heat Index Dew Point Humidity Pressure Visibility Wind Dir Wind Speed Gust Speed Precip Events Conditions
12:54 AM 72.0 °F - 62.1 °F 71% 30.15 in 10.0 mi SE 6.9 mph - N/A   Scattered Clouds
1:54 AM 71.1 °F - 61.0 °F 70% 30.16 in 10.0 mi Calm Calm - N/A   Scattered Clouds
2:54 AM 68.0 °F - 61.0 °F 78% 30.16 in 10.0 mi East 4.6 mph - N/A   Mostly Cloudy
3:54 AM 66.0 °F - 60.1 °F 81% 30.17 in 10.0 mi SE 3.5 mph - N/A   Mostly Cloudy
4:54 AM 64.9 °F - 60.1 °F 84% 30.16 in 10.0 mi ESE 5.8 mph - N/A   Scattered Clouds
5:54 AM 68.0 °F - 60.1 °F 76% 30.15 in 10.0 mi SE 6.9 mph - N/A   Mostly Cloudy
6:54 AM 71.1 °F - 62.1 °F 73% 30.15 in 10.0 mi Calm Calm - N/A   Mostly Cloudy
7:54 AM 75.9 °F - 62.1 °F 62% 30.15 in 10.0 mi SE 4.6 mph - N/A   Scattered Clouds
8:54 AM 78.1 °F - 63.0 °F 60% 30.15 in 10.0 mi SSW 4.6 mph - N/A   Scattered Clouds
9:54 AM 81.0 °F 82.5 °F 64.0 °F 56% 30.13 in 10.0 mi South 8.1 mph - N/A   Scattered Clouds
10:54 AM 82.0 °F 83.8 °F 64.9 °F 56% 30.12 in 10.0 mi SE 3.5 mph - N/A   Scattered Clouds
11:54 AM 84.9 °F 87.1 °F 66.0 °F 53% 30.10 in 10.0 mi South 5.8 mph - N/A   Scattered Clouds
12:54 PM 87.1 °F 89.9 °F 66.9 °F 51% 30.08 in 7.0 mi SSW 5.8 mph - N/A   Partly Cloudy
1:54 PM 88.0 °F 90.3 °F 66.0 °F 48% 30.06 in 10.0 mi SSE 8.1 mph - N/A   Scattered Clouds
2:54 PM 90.0 °F 92.4 °F 66.0 °F 45% 30.04 in 10.0 mi South 10.4 mph 17.3 mph N/A   Scattered Clouds
3:54 PM 89.1 °F 90.3 °F 64.0 °F 43% 30.01 in 10.0 mi SSW 12.7 mph - N/A   Mostly Cloudy
4:54 PM 88.0 °F 89.3 °F 64.0 °F 45% 30.01 in 10.0 mi SSW 12.7 mph - N/A   Mostly Cloudy
5:54 PM 87.1 °F 88.3 °F 64.0 °F 46% 29.99 in 10.0 mi South 12.7 mph - N/A   Mostly Cloudy
6:54 PM 84.9 °F 86.6 °F 64.9 °F 51% 29.99 in 10.0 mi SSW 15.0 mph - N/A   Mostly Cloudy
7:54 PM 82.9 °F 84.4 °F 64.0 °F 53% 30.01 in 10.0 mi SSW 13.8 mph 18.4 mph N/A   Mostly Cloudy
8:54 PM 81.0 °F 82.5 °F 64.0 °F 56% 30.00 in 10.0 mi South 10.4 mph - N/A   Overcast
9:54 PM 80.1 °F 81.5 °F 63.0 °F 56% 30.01 in 10.0 mi SSW 11.5 mph - N/A   Overcast
10:54 PM 73.9 °F - 66.9 °F 79% 30.01 in 9.0 mi SSE 8.1 mph - 0.01 in Rain Light Rain
11:54 PM 75.9 °F - 64.9 °F 69% 30.00 in 10.0 mi South 12.7 mph - 0.02 in   Overcast